Location: Peebles
(55.6412°N, 3.1714°W)
Time: 15:55:22
(UTC+01:00)

Cosmos 1821 Rocket - Pass Details

Date: 26 September 2021
Orbit: 945 x 1004 km, 82.9° (Epoch: 17 October)

Event Time Altitude Azimuth Distance (km) Brightness Sun altitude
Exits shadow 22:25:49 46° 200° (SSW) 1,318 4.4 -27.3°
Maximum altitude 22:27:53 82° 282° (WNW) 1,018 4.0 -27.5°
Drops below altitude 10° 22:34:21 10° 11° (N) 2,792 6.8 -28.1°
Sets 22:36:54 0° 12° (NNE) 3,747 7.5 -28.4°
